Time,TemperatureF,DewpointF,PressureIn,WindDirection,WindDirectionDegrees,WindSpeedMPH,WindSpeedGustMPH,Humidity,HourlyPrecipIn,Conditions,Clouds,dailyrainin,SoftwareType,DateUTC
2013-01-06 00:03:00,42.3,21.1,28.94,WNW,300,0.0,0.0,42,0.00,,,0.00,WSDL version 420,2013-01-06 05:03:00,
2013-01-06 00:09:00,42.2,21.3,28.94,ESE,105,0.0,0.0,43,0.00,,,0.00,WSDL version 420,2013-01-06 05:09:00,
2013-01-06 00:13:00,42.1,21.4,28.94,South,180,0.0,0.0,44,0.00,,,0.00,WSDL version 420,2013-01-06 05:13:00,
2013-01-06 00:19:00,42.1,21.7,28.94,SSW,203,0.0,0.0,43,0.00,,,0.00,WSDL version 420,2013-01-06 05:19:00,
2013-01-06 00:21:00,42.1,21.5,28.94,SSW,203,0.0,0.0,44,0.00,,,0.00,WSDL version 420,2013-01-06 05:21:00,
2013-01-06 00:27:00,41.8,22.1,28.91,North,349,0.0,0.0,47,0.00,,,0.00,WSDL version 420,2013-01-06 05:27:00,
2013-01-06 00:31:00,41.7,23.1,28.91,SE,135,0.0,4.7,47,0.00,,,0.00,WSDL version 420,2013-01-06 05:31:00,
2013-01-06 00:33:00,41.7,23.4,28.91,West,270,1.2,4.7,48,0.00,,,0.00,WSDL version 420,2013-01-06 05:33:00,
2013-01-06 00:39:00,41.5,23.6,28.91,West,270,0.4,4.7,48,0.00,,,0.00,WSDL version 420,2013-01-06 05:39:00,
2013-01-06 00:41:00,41.5,23.4,28.91,West,270,0.0,1.6,49,0.00,,,0.00,WSDL version 420,2013-01-06 05:41:00,
2013-01-06 00:45:00,41.4,23.7,28.91,SSW,203,0.0,1.6,50,0.00,,,0.00,WSDL version 420,2013-01-06 05:45:00,
2013-01-06 00:49:00,41.4,24.1,28.91,South,180,0.0,0.0,50,0.00,,,0.00,WSDL version 420,2013-01-06 05:49:00,
2013-01-06 00:53:00,41.4,24.1,28.91,South,180,0.0,0.0,50,0.00,,,0.00,WSDL version 420,2013-01-06 05:53:00,
2013-01-06 00:55:00,41.3,24.1,28.94,South,180,0.0,0.0,50,0.00,,,0.00,WSDL version 420,2013-01-06 05:55:00,
2013-01-06 00:57:00,41.2,23.8,28.94,WSW,240,0.0,0.0,50,0.00,,,0.00,WSDL version 420,2013-01-06 05:57:00,
2013-01-06 01:01:00,41.1,24.1,28.94,North,360,0.0,0.0,51,0.00,,,0.00,WSDL version 420,2013-01-06 06:01:00,
2013-01-06 01:03:00,41.0,24.5,28.94,NW,315,0.0,0.0,52,0.00,,,0.00,WSDL version 420,2013-01-06 06:03:00,
2013-01-06 01:07:00,41.1,24.6,28.94,West,270,0.0,0.0,51,0.00,,,0.00,WSDL version 420,2013-01-06 06:07:00,
2013-01-06 01:09:00,41.1,24.2,28.94,West,270,0.0,0.0,50,0.00,,,0.00,WSDL version 420,2013-01-06 06:09:00,
2013-01-06 01:15:00,41.2,24.0,28.94,ENE,77,0.0,0.0,50,0.00,,,0.00,WSDL version 420,2013-01-06 06:15:00,
2013-01-06 01:17:00,41.2,23.9,28.94,NE,45,0.0,0.0,50,0.00,,,0.00,WSDL version 420,2013-01-06 06:17:00,
2013-01-06 01:19:00,41.2,23.9,28.94,North,8,0.0,0.0,50,0.00,,,0.00,WSDL version 420,2013-01-06 06:19:00,
2013-01-06 01:25:00,41.2,24.1,28.94,WNW,293,0.0,0.0,50,0.00,,,0.00,WSDL version 420,2013-01-06 06:25:00,
2013-01-06 01:29:00,41.2,24.0,28.94,NW,304,0.0,0.0,50,0.00,,,0.00,WSDL version 420,2013-01-06 06:29:00,
2013-01-06 01:31:00,41.2,24.0,28.94,NW,315,0.0,0.0,50,0.00,,,0.00,WSDL version 420,2013-01-06 06:31:00,
2013-01-06 01:33:00,41.3,24.1,28.94,WSW,248,0.0,0.0,50,0.00,,,0.00,WSDL version 420,2013-01-06 06:33:00,
2013-01-06 01:39:00,41.4,23.8,28.94,NE,45,0.0,0.0,49,0.00,,,0.00,WSDL version 420,2013-01-06 06:39:00,
2013-01-06 01:41:00,41.4,23.8,28.94,East,86,0.4,4.0,50,0.00,,,0.00,WSDL version 420,2013-01-06 06:41:00,
2013-01-06 01:43:00,41.5,24.1,28.94,NW,315,1.6,4.0,50,0.00,,,0.00,WSDL version 420,2013-01-06 06:43:00,
2013-01-06 01:45:00,41.5,24.3,28.94,NW,315,0.0,4.0,50,0.00,,,0.00,WSDL version 420,2013-01-06 06:45:00,
2013-01-06 01:47:00,41.5,24.3,28.94,NNW,329,0.0,4.0,50,0.00,,,0.00,WSDL version 420,2013-01-06 06:47:00,
2013-01-06 01:49:00,41.5,24.3,28.94,NE,51,0.0,4.0,50,0.00,,,0.00,WSDL version 420,2013-01-06 06:49:00,
2013-01-06 01:53:00,41.4,24.1,28.94,NE,45,0.0,2.5,50,0.00,,,0.00,WSDL version 420,2013-01-06 06:53:00,
2013-01-06 01:57:00,41.5,24.3,28.94,NE,45,0.0,2.5,50,0.00,,,0.00,WSDL version 420,2013-01-06 06:57:00,
2013-01-06 01:59:00,41.5,24.3,28.94,NE,45,0.0,0.0,50,0.00,,,0.00,WSDL version 420,2013-01-06 06:59:00,
2013-01-06 02:03:00,41.5,24.3,28.94,NE,45,0.0,0.0,50,0.00,,,0.00,WSDL version 420,2013-01-06 07:03:00,
2013-01-06 02:05:00,41.5,24.4,28.94,NE,45,0.0,0.0,50,0.00,,,0.00,WSDL version 420,2013-01-06 07:05:00,
2013-01-06 02:07:00,41.5,24.5,28.94,North,360,0.0,0.0,51,0.00,,,0.00,WSDL version 420,2013-01-06 07:07:00,
2013-01-06 02:09:00,41.5,24.5,28.94,North,360,0.0,0.0,51,0.00,,,0.00,WSDL version 420,2013-01-06 07:09:00,
2013-01-06 02:15:00,41.5,24.7,28.94,North,360,0.0,0.0,50,0.00,,,0.00,WSDL version 420,2013-01-06 07:15:00,
2013-01-06 02:17:00,41.5,24.5,28.94,North,360,0.0,0.0,50,0.00,,,0.00,WSDL version 420,2013-01-06 07:17:00,
2013-01-06 02:19:00,41.5,24.4,28.94,North,360,0.0,0.0,51,0.00,,,0.00,WSDL version 420,2013-01-06 07:19:00,
2013-01-06 02:23:00,41.6,24.7,28.94,North,360,0.0,0.0,51,0.00,,,0.00,WSDL version 420,2013-01-06 07:23:00,
2013-01-06 02:27:00,41.7,24.9,28.94,South,180,0.0,0.0,51,0.00,,,0.00,WSDL version 420,2013-01-06 07:27:00,
2013-01-06 02:33:00,41.7,25.4,28.94,North,360,0.0,0.0,52,0.00,,,0.00,WSDL version 420,2013-01-06 07:33:00,
2013-01-06 02:35:00,41.6,25.3,28.94,North,360,0.0,0.0,52,0.00,,,0.00,WSDL version 420,2013-01-06 07:35:00,
2013-01-06 02:41:00,41.5,25.1,28.94,North,360,0.0,0.0,51,0.00,,,0.00,WSDL version 420,2013-01-06 07:41:00,
2013-01-06 02:43:00,41.6,25.0,28.94,North,360,0.0,0.0,51,0.00,,,0.00,WSDL version 420,2013-01-06 07:43:00,
2013-01-06 02:47:00,41.7,24.9,28.94,North,360,0.0,0.0,51,0.00,,,0.00,WSDL version 420,2013-01-06 07:47:00,
2013-01-06 02:49:00,41.7,25.1,28.94,North,360,0.0,0.0,52,0.00,,,0.00,WSDL version 420,2013-01-06 07:49:00,
2013-01-06 02:51:00,41.7,25.3,28.94,NW,321,0.0,0.0,52,0.00,,,0.00,WSDL version 420,2013-01-06 07:51:00,
2013-01-06 02:57:00,41.6,25.6,28.91,NW,315,0.0,0.0,52,0.00,,,0.00,WSDL version 420,2013-01-06 07:57:00,
2013-01-06 03:03:00,41.7,25.4,28.91,NE,45,0.0,1.6,52,0.00,,,0.00,WSDL version 420,2013-01-06 08:03:00,
2013-01-06 03:05:00,41.7,25.3,28.91,NE,45,0.0,1.6,51,0.00,,,0.00,WSDL version 420,2013-01-06 08:05:00,
2013-01-06 03:07:00,41.7,25.4,28.91,NNW,338,0.0,1.6,53,0.00,,,0.00,WSDL version 420,2013-01-06 08:07:00,
2013-01-06 03:11:00,41.7,25.6,28.91,NW,315,1.3,2.2,52,0.00,,,0.00,WSDL version 420,2013-01-06 08:11:00,
2013-01-06 03:13:00,41.7,25.4,28.91,NNW,338,0.0,2.2,52,0.00,,,0.00,WSDL version 420,2013-01-06 08:13:00,
2013-01-06 03:17:00,41.7,25.2,28.91,South,169,0.0,2.2,51,0.00,,,0.00,WSDL version 420,2013-01-06 08:17:00,
2013-01-06 03:19:00,41.8,25.0,28.91,NE,34,0.0,1.1,51,0.00,,,0.00,WSDL version 420,2013-01-06 08:19:00,
2013-01-06 03:23:00,41.9,24.9,28.91,ESE,109,0.0,0.0,50,0.00,,,0.00,WSDL version 420,2013-01-06 08:23:00,
2013-01-06 03:25:00,42.0,24.8,28.91,ENE,59,0.0,0.0,50,0.00,,,0.00,WSDL version 420,2013-01-06 08:25:00,
2013-01-06 03:27:00,42.1,24.8,28.91,ENE,75,0.3,1.3,50,0.00,,,0.00,WSDL version 420,2013-01-06 08:27:00,
2013-01-06 03:33:00,42.0,24.9,28.91,North,360,0.0,1.3,51,0.00,,,0.00,WSDL version 420,2013-01-06 08:33:00,
2013-01-06 03:39:00,41.9,24.8,28.91,North,360,0.0,0.0,50,0.00,,,0.00,WSDL version 420,2013-01-06 08:39:00,
2013-01-06 03:43:00,42.1,24.8,28.91,NE,34,0.0,0.0,50,0.00,,,0.00,WSDL version 420,2013-01-06 08:43:00,
2013-01-06 03:45:00,42.1,24.8,28.91,NE,56,0.0,0.0,50,0.00,,,0.00,WSDL version 420,2013-01-06 08:45:00,
2013-01-06 03:51:00,42.1,24.8,28.91,East,90,0.0,0.0,50,0.00,,,0.00,WSDL version 420,2013-01-06 08:51:00,
2013-01-06 03:53:00,42.1,24.6,28.91,East,90,0.0,0.0,49,0.00,,,0.00,WSDL version 420,2013-01-06 08:53:00,
2013-01-06 03:55:00,42.1,24.5,28.88,SE,129,0.0,0.0,49,0.00,,,0.00,WSDL version 420,2013-01-06 08:55:00,
2013-01-06 03:59:00,42.2,24.4,28.88,SSE,158,0.0,0.0,49,0.00,,,0.00,WSDL version 420,2013-01-06 08:59:00,
2013-01-06 04:05:00,42.3,24.5,28.88,South,180,0.0,0.0,49,0.00,,,0.00,WSDL version 420,2013-01-06 09:05:00,
2013-01-06 04:11:00,42.3,24.5,28.88,South,180,0.0,0.0,49,0.00,,,0.00,WSDL version 420,2013-01-06 09:11:00,
2013-01-06 04:13:00,42.3,24.6,28.88,South,180,0.0,0.0,50,0.00,,,0.00,WSDL version 420,2013-01-06 09:13:00,
2013-01-06 04:19:00,42.3,25.0,28.88,South,180,0.0,0.0,50,0.00,,,0.00,WSDL version 420,2013-01-06 09:19:00,
2013-01-06 04:25:00,42.3,25.0,28.88,ESE,113,0.0,0.0,50,0.00,,,0.00,WSDL version 420,2013-01-06 09:25:00,
2013-01-06 04:31:00,42.1,24.8,28.88,NE,45,0.0,0.0,50,0.00,,,0.00,WSDL version 420,2013-01-06 09:31:00,
2013-01-06 04:35:00,42.3,25.0,28.88,SSE,158,0.0,0.0,50,0.00,,,0.00,WSDL version 420,2013-01-06 09:35:00,
2013-01-06 04:37:00,42.3,25.0,28.88,SSE,153,0.0,0.0,50,0.00,,,0.00,WSDL version 420,2013-01-06 09:37:00,
2013-01-06 04:39:00,42.3,24.9,28.88,North,3,0.0,0.0,50,0.00,,,0.00,WSDL version 420,2013-01-06 09:39:00,
2013-01-06 04:41:00,42.3,25.0,28.88,NW,315,0.0,0.0,51,0.00,,,0.00,WSDL version 420,2013-01-06 09:41:00,
2013-01-06 04:47:00,42.2,25.2,28.88,NW,308,0.0,0.0,51,0.00,,,0.00,WSDL version 420,2013-01-06 09:47:00,
2013-01-06 04:51:00,42.1,25.3,28.88,ESE,113,0.0,0.0,51,0.00,,,0.00,WSDL version 420,2013-01-06 09:51:00,
2013-01-06 04:53:00,42.1,25.3,28.88,ESE,109,0.0,0.0,51,0.00,,,0.00,WSDL version 420,2013-01-06 09:53:00,
2013-01-06 04:57:00,42.1,24.9,28.88,SSE,158,0.0,0.0,50,0.00,,,0.00,WSDL version 420,2013-01-06 09:57:00,
2013-01-06 04:59:00,42.1,24.8,28.88,ESE,109,0.0,0.0,50,0.00,,,0.00,WSDL version 420,2013-01-06 09:59:00,
2013-01-06 05:03:00,42.1,24.9,28.88,NE,45,0.0,0.0,51,0.00,,,0.00,WSDL version 420,2013-01-06 10:03:00,
2013-01-06 05:05:00,42.1,25.1,28.88,NE,45,0.0,0.0,51,0.00,,,0.00,WSDL version 420,2013-01-06 10:05:00,
2013-01-06 05:11:00,42.1,25.3,28.85,South,180,0.6,0.9,51,0.00,,,0.00,WSDL version 420,2013-01-06 10:11:00,
2013-01-06 05:13:00,42.1,25.1,28.85,WNW,285,1.3,2.7,50,0.00,,,0.00,WSDL version 420,2013-01-06 10:13:00,
2013-01-06 05:17:00,42.4,25.0,28.85,NNW,338,1.3,2.7,50,0.00,,,0.00,WSDL version 420,2013-01-06 10:17:00,
2013-01-06 05:23:00,42.5,24.9,28.85,SSW,203,0.2,2.5,49,0.00,,,0.00,WSDL version 420,2013-01-06 10:23:00,
2013-01-06 05:25:00,42.6,24.8,28.85,SE,143,0.4,2.2,49,0.00,,,0.00,WSDL version 420,2013-01-06 10:25:00,
2013-01-06 05:29:00,42.7,24.8,28.85,South,186,0.4,2.5,49,0.00,,,0.00,WSDL version 420,2013-01-06 10:29:00,
2013-01-06 05:31:00,42.8,24.7,28.85,SSE,163,0.0,2.5,48,0.00,,,0.00,WSDL version 420,2013-01-06 10:31:00,
2013-01-06 05:35:00,42.8,24.5,28.85,North,354,1.2,3.4,48,0.00,,,0.00,WSDL version 420,2013-01-06 10:35:00,
2013-01-06 05:37:00,42.9,24.6,28.85,NNW,341,0.4,3.4,49,0.00,,,0.00,WSDL version 420,2013-01-06 10:37:00,
2013-01-06 05:39:00,42.9,24.6,28.85,North,360,0.0,3.4,48,0.00,,,0.00,WSDL version 420,2013-01-06 10:39:00,
2013-01-06 05:43:00,42.8,24.5,28.85,NNE,23,0.0,2.5,48,0.00,,,0.00,WSDL version 420,2013-01-06 10:43:00,
2013-01-06 05:49:00,43.0,24.6,28.85,SW,236,1.5,2.9,48,0.00,,,0.00,WSDL version 420,2013-01-06 10:49:00,
2013-01-06 05:51:00,43.0,24.8,28.85,SSE,158,0.0,2.9,49,0.00,,,0.00,WSDL version 420,2013-01-06 10:51:00,
2013-01-06 05:55:00,42.9,24.8,28.88,ESE,120,0.0,2.9,49,0.00,,,0.00,WSDL version 420,2013-01-06 10:55:00,
2013-01-06 05:59:00,42.8,24.9,28.88,WSW,251,0.5,2.0,48,0.00,,,0.00,WSDL version 420,2013-01-06 10:59:00,
2013-01-06 06:01:00,42.8,24.8,28.88,NW,309,0.0,2.0,49,0.00,,,0.00,WSDL version 420,2013-01-06 11:01:00,
2013-01-06 06:05:00,42.7,25.2,28.88,WNW,293,0.8,2.2,50,0.00,,,0.00,WSDL version 420,2013-01-06 11:05:00,
2013-01-06 06:09:00,42.7,24.9,28.88,SSE,150,0.7,2.7,49,0.00,,,0.00,WSDL version 420,2013-01-06 11:09:00,
2013-01-06 06:11:00,42.7,24.9,28.88,NE,45,0.0,2.7,49,0.00,,,0.00,WSDL version 420,2013-01-06 11:11:00,
2013-01-06 06:13:00,42.8,25.0,28.88,SE,135,0.6,2.7,49,0.00,,,0.00,WSDL version 420,2013-01-06 11:13:00,
2013-01-06 06:15:00,42.8,25.0,28.88,SW,225,0.0,2.7,49,0.00,,,0.00,WSDL version 420,2013-01-06 11:15:00,
2013-01-06 06:17:00,42.8,24.9,28.88,NNW,345,0.0,2.7,48,0.00,,,0.00,WSDL version 420,2013-01-06 11:17:00,
2013-01-06 06:19:00,42.8,24.7,28.88,North,354,1.0,2.2,48,0.00,,,0.00,WSDL version 420,2013-01-06 11:19:00,
2013-01-06 06:25:00,42.8,24.8,28.88,South,186,0.3,2.9,49,0.00,,,0.00,WSDL version 420,2013-01-06 11:25:00,
2013-01-06 06:27:00,42.8,25.0,28.88,SE,135,1.2,2.9,49,0.00,,,0.00,WSDL version 420,2013-01-06 11:27:00,
2013-01-06 06:33:00,42.9,25.1,28.88,NNW,333,0.4,2.9,49,0.00,,,0.00,WSDL version 420,2013-01-06 11:33:00,
2013-01-06 06:35:00,43.0,25.1,28.88,NW,315,0.0,2.9,49,0.00,,,0.00,WSDL version 420,2013-01-06 11:35:00,
2013-01-06 06:39:00,43.0,25.1,28.88,North,360,0.0,0.0,49,0.00,,,0.00,WSDL version 420,2013-01-06 11:39:00,
2013-01-06 06:41:00,43.0,25.1,28.88,SSE,150,1.5,0.0,49,0.00,,,0.00,WSDL version 420,2013-01-06 11:41:00,
2013-01-06 06:43:00,43.0,25.1,28.88,East,80,0.0,0.0,49,0.00,,,0.00,WSDL version 420,2013-01-06 11:43:00,
2013-01-06 06:49:00,43.1,25.3,28.88,WNW,293,0.0,2.2,50,0.00,,,0.00,WSDL version 420,2013-01-06 11:49:00,
2013-01-06 06:51:00,43.2,25.6,28.88,ENE,68,1.6,2.2,50,0.00,,,0.00,WSDL version 420,2013-01-06 11:51:00,
2013-01-06 06:55:00,43.2,25.8,28.88,East,79,2.0,4.0,50,0.00,,,0.00,WSDL version 420,2013-01-06 11:55:00,
2013-01-06 06:57:00,43.3,26.0,28.88,WSW,253,1.5,4.0,51,0.00,,,0.00,WSDL version 420,2013-01-06 11:57:00,
2013-01-06 07:03:00,43.4,26.1,28.88,North,0,0.0,4.0,50,0.00,,,0.00,WSDL version 420,2013-01-06 12:03:00,
2013-01-06 07:09:00,43.5,26.1,28.88,North,360,0.4,2.5,50,0.00,,,0.00,WSDL version 420,2013-01-06 12:09:00,
2013-01-06 07:11:00,43.5,26.3,28.88,WNW,285,0.8,3.4,51,0.00,,,0.00,WSDL version 420,2013-01-06 12:11:00,
2013-01-06 07:13:00,43.6,26.5,28.88,WNW,293,0.8,3.4,51,0.00,,,0.00,WSDL version 420,2013-01-06 12:13:00,
2013-01-06 07:15:00,43.6,26.7,28.88,NNE,32,0.2,3.4,51,0.00,,,0.00,WSDL version 420,2013-01-06 12:15:00,
2013-01-06 07:19:00,43.7,26.8,28.88,WNW,285,1.0,3.4,51,0.00,,,0.00,WSDL version 420,2013-01-06 12:19:00,
2013-01-06 07:23:00,43.7,26.8,28.88,North,360,0.0,2.9,51,0.00,,,0.00,WSDL version 420,2013-01-06 12:23:00,
2013-01-06 07:29:00,43.7,27.1,28.88,SSE,163,0.6,3.6,51,0.00,,,0.00,WSDL version 420,2013-01-06 12:29:00,
2013-01-06 07:31:00,43.7,27.0,28.88,NNE,27,0.9,3.6,52,0.00,,,0.00,WSDL version 420,2013-01-06 12:31:00,
2013-01-06 07:35:00,43.7,26.8,28.88,NNE,23,1.3,3.6,51,0.00,,,0.00,WSDL version 420,2013-01-06 12:35:00,
2013-01-06 07:39:00,43.7,26.8,28.88,NE,45,0.4,1.3,51,0.00,,,0.00,WSDL version 420,2013-01-06 12:39:00,
2013-01-06 07:41:00,43.7,26.9,28.88,SW,225,2.0,2.0,52,0.00,,,0.00,WSDL version 420,2013-01-06 12:41:00,
2013-01-06 07:45:00,43.7,27.2,28.88,SSW,203,0.0,2.5,52,0.00,,,0.00,WSDL version 420,2013-01-06 12:45:00,
2013-01-06 07:47:00,43.7,27.2,28.88,NNW,345,0.0,2.5,52,0.00,,,0.00,WSDL version 420,2013-01-06 12:47:00,
2013-01-06 07:51:00,43.6,27.1,28.88,South,180,0.0,2.5,52,0.00,,,0.00,WSDL version 420,2013-01-06 12:51:00,
2013-01-06 07:53:00,43.5,27.1,28.88,WSW,255,0.7,2.0,52,0.00,,,0.00,WSDL version 420,2013-01-06 12:53:00,
2013-01-06 07:57:00,43.5,27.1,28.88,ESE,119,0.0,2.0,52,0.00,,,0.00,WSDL version 420,2013-01-06 12:57:00,
2013-01-06 08:03:00,43.5,27.1,28.88,WSW,255,0.4,2.2,52,0.00,,,0.00,WSDL version 420,2013-01-06 13:03:00,
2013-01-06 08:05:00,43.5,27.1,28.88,South,186,1.1,2.9,52,0.00,,,0.00,WSDL version 420,2013-01-06 13:05:00,
2013-01-06 08:09:00,43.5,27.1,28.88,ENE,68,0.0,2.9,52,0.00,,,0.00,WSDL version 420,2013-01-06 13:09:00,
2013-01-06 08:11:00,43.5,27.1,28.88,NE,45,0.0,2.9,52,0.00,,,0.00,WSDL version 420,2013-01-06 13:11:00,
2013-01-06 08:16:00,43.5,27.1,28.88,ENE,68,0.0,1.1,52,0.00,,,0.00,WSDL version 420,2013-01-06 13:16:00,
2013-01-06 08:22:00,43.5,27.1,28.88,SE,135,0.0,0.0,52,0.00,,,0.00,WSDL version 420,2013-01-06 13:22:00,
2013-01-06 08:24:00,43.5,27.1,28.88,SE,135,0.0,0.0,52,0.00,,,0.00,WSDL version 420,2013-01-06 13:24:00,
2013-01-06 08:30:00,43.5,27.5,28.91,East,101,0.0,0.0,53,0.00,,,0.00,WSDL version 420,2013-01-06 13:30:00,
2013-01-06 08:32:00,43.5,27.5,28.91,East,90,0.0,0.0,53,0.00,,,0.00,WSDL version 420,2013-01-06 13:32:00,
2013-01-06 08:38:00,43.6,27.6,28.91,ENE,68,0.0,0.0,53,0.00,,,0.00,WSDL version 420,2013-01-06 13:38:00,
2013-01-06 08:40:00,43.7,27.7,28.91,SE,129,0.0,0.0,53,0.00,,,0.00,WSDL version 420,2013-01-06 13:40:00,
2013-01-06 08:44:00,43.7,27.7,28.91,SE,140,0.0,0.0,53,0.00,,,0.00,WSDL version 420,2013-01-06 13:44:00,
2013-01-06 09:01:00,43.7,28.6,28.91,NE,45,0.0,0.0,55,0.00,,,0.00,WSDL version 420,2013-01-06 14:01:00,
2013-01-06 09:07:00,43.5,28.4,28.91,North,-999,-999.0,-999.0,55,0.00,,,0.00,WSDL version 420,2013-01-06 14:07:00,
2013-01-06 09:09:00,43.5,28.4,28.91,NE,45,0.0,0.0,55,0.00,,,0.00,WSDL version 420,2013-01-06 14:09:00,
2013-01-06 09:13:00,43.4,28.1,28.88,East,86,0.0,0.0,54,0.00,,,0.00,WSDL version 420,2013-01-06 14:13:00,
2013-01-06 09:17:00,43.3,27.8,28.88,NE,45,0.0,0.0,54,0.00,,,0.00,WSDL version 420,2013-01-06 14:17:00,
2013-01-06 09:19:00,43.3,27.8,28.88,NE,41,0.0,0.0,54,0.00,,,0.00,WSDL version 420,2013-01-06 14:19:00,
2013-01-06 09:25:00,43.2,27.7,28.91,SE,124,0.0,2.0,54,0.00,,,0.00,WSDL version 420,2013-01-06 14:25:00,
2013-01-06 09:27:00,43.3,27.8,28.91,WNW,298,0.0,2.0,54,0.00,,,0.00,WSDL version 420,2013-01-06 14:27:00,
2013-01-06 09:33:00,43.8,28.4,28.91,NE,56,0.4,1.6,55,0.00,,,0.00,WSDL version 420,2013-01-06 14:33:00,
2013-01-06 09:39:00,44.2,29.0,28.91,North,360,0.0,1.6,55,0.00,,,0.00,WSDL version 420,2013-01-06 14:39:00,
2013-01-06 09:43:00,44.6,29.3,28.91,North,360,0.0,1.6,55,0.00,,,0.00,WSDL version 420,2013-01-06 14:43:00,
2013-01-06 09:47:00,45.2,30.0,28.91,NE,38,0.0,0.0,55,0.00,,,0.00,WSDL version 420,2013-01-06 14:47:00,
2013-01-06 09:53:00,45.9,30.4,28.91,NE,41,0.0,0.0,55,0.00,,,0.00,WSDL version 420,2013-01-06 14:53:00,
2013-01-06 09:57:00,46.3,30.8,28.91,South,191,0.0,0.0,54,0.00,,,0.00,WSDL version 420,2013-01-06 14:57:00,
2013-01-06 09:59:00,46.4,30.6,28.91,SE,141,0.0,0.0,53,0.00,,,0.00,WSDL version 420,2013-01-06 14:59:00,
2013-01-06 10:03:00,46.6,30.4,28.91,SSW,199,0.0,0.0,53,0.00,,,0.00,WSDL version 420,2013-01-06 15:03:00,
2013-01-06 10:05:00,46.8,30.5,28.91,South,189,0.0,0.0,53,0.00,,,0.00,WSDL version 420,2013-01-06 15:05:00,
2013-01-06 10:09:00,47.1,30.5,28.91,SW,217,0.0,0.0,52,0.00,,,0.00,WSDL version 420,2013-01-06 15:09:00,
2013-01-06 10:15:00,47.5,30.8,28.88,SE,143,0.7,3.1,52,0.00,,,0.00,WSDL version 420,2013-01-06 15:15:00,
2013-01-06 10:17:00,47.7,30.9,28.88,NW,308,0.0,3.1,52,0.00,,,0.00,WSDL version 420,2013-01-06 15:17:00,
2013-01-06 10:23:00,48.1,31.2,28.88,WSW,255,0.0,2.5,52,0.00,,,0.00,WSDL version 420,2013-01-06 15:23:00,
2013-01-06 10:27:00,48.3,31.2,28.88,SSW,203,0.5,1.6,51,0.00,,,0.00,WSDL version 420,2013-01-06 15:27:00,
2013-01-06 10:33:00,48.4,30.7,28.88,West,264,0.0,1.6,50,0.00,,,0.00,WSDL version 420,2013-01-06 15:33:00,
2013-01-06 10:37:00,48.5,30.6,28.88,NW,308,0.0,1.1,49,0.00,,,0.00,WSDL version 420,2013-01-06 15:37:00,
2013-01-06 10:43:00,48.7,30.5,28.88,NNW,341,2.3,3.4,49,0.00,,,0.00,WSDL version 420,2013-01-06 15:43:00,
2013-01-06 10:45:00,48.7,30.4,28.88,North,360,1.7,3.6,49,0.00,,,0.00,WSDL version 420,2013-01-06 15:45:00,
2013-01-06 10:51:00,48.7,29.9,28.88,SW,225,2.0,4.0,48,0.00,,,0.00,WSDL version 420,2013-01-06 15:51:00,
2013-01-06 10:57:00,48.6,29.8,28.88,NW,323,1.0,3.6,48,0.00,,,0.00,WSDL version 420,2013-01-06 15:57:00,
2013-01-06 10:59:00,48.6,29.8,28.88,NW,326,0.2,3.6,48,0.00,,,0.00,WSDL version 420,2013-01-06 15:59:00,
2013-01-06 11:01:00,48.7,29.9,28.88,North,9,0.4,3.6,48,0.00,,,0.00,WSDL version 420,2013-01-06 16:01:00,
2013-01-06 11:05:00,48.9,30.1,28.88,NNE,28,1.7,2.7,48,0.00,,,0.00,WSDL version 420,2013-01-06 16:05:00,
2013-01-06 11:09:00,49.1,30.2,28.88,NNE,30,1.9,2.9,48,0.00,,,0.00,WSDL version 420,2013-01-06 16:09:00,
2013-01-06 11:11:00,49.1,30.3,28.88,NNE,19,1.5,2.9,48,0.00,,,0.00,WSDL version 420,2013-01-06 16:11:00,
2013-01-06 11:13:00,49.2,30.4,28.88,NE,45,0.6,2.9,48,0.00,,,0.00,WSDL version 420,2013-01-06 16:13:00,
2013-01-06 11:17:00,49.4,30.5,28.88,NNE,29,0.9,2.9,48,0.00,,,0.00,WSDL version 420,2013-01-06 16:17:00,
2013-01-06 11:19:00,49.5,30.6,28.88,NE,45,0.6,2.5,48,0.00,,,0.00,WSDL version 420,2013-01-06 16:19:00,
2013-01-06 11:21:00,49.6,30.7,28.88,NNE,23,0.0,2.5,48,0.00,,,0.00,WSDL version 420,2013-01-06 16:21:00,
2013-01-06 11:25:00,49.7,30.8,28.88,NNE,15,0.7,2.5,48,0.00,,,0.00,WSDL version 420,2013-01-06 16:25:00,
2013-01-06 11:27:00,49.8,30.9,28.88,NNE,23,1.6,2.5,48,0.00,,,0.00,WSDL version 420,2013-01-06 16:27:00,
2013-01-06 11:33:00,50.1,31.2,28.88,SSE,158,1.3,2.9,48,0.00,,,0.00,WSDL version 420,2013-01-06 16:33:00,
2013-01-06 11:39:00,50.3,31.1,28.88,ESE,105,0.7,2.9,47,0.00,,,0.00,WSDL version 420,2013-01-06 16:39:00,
2013-01-06 11:43:00,50.6,31.1,28.88,East,98,0.6,2.5,47,0.00,,,0.00,WSDL version 420,2013-01-06 16:43:00,
2013-01-06 11:47:00,50.8,31.3,28.88,NNW,347,0.5,2.5,47,0.00,,,0.00,WSDL version 420,2013-01-06 16:47:00,
2013-01-06 11:49:00,50.9,31.4,28.88,NNW,338,0.0,2.5,47,0.00,,,0.00,WSDL version 420,2013-01-06 16:49:00,
2013-01-06 11:55:00,51.3,31.7,28.88,NW,320,0.2,1.3,47,0.00,,,0.00,WSDL version 420,2013-01-06 16:55:00,
2013-01-06 11:57:00,51.4,31.9,28.88,NE,34,0.0,1.3,47,0.00,,,0.00,WSDL version 420,2013-01-06 16:57:00,
2013-01-06 12:01:00,51.6,32.0,28.88,NE,56,0.4,2.0,47,0.00,,,0.00,WSDL version 420,2013-01-06 17:01:00,
2013-01-06 12:03:00,51.6,32.0,28.88,NE,55,0.0,2.0,47,0.00,,,0.00,WSDL version 420,2013-01-06 17:03:00,
2013-01-06 12:07:00,51.8,31.9,28.88,NW,315,0.4,2.0,46,0.00,,,0.00,WSDL version 420,2013-01-06 17:07:00,
2013-01-06 12:11:00,52.0,31.9,28.85,NW,315,0.4,1.3,46,0.00,,,0.00,WSDL version 420,2013-01-06 17:11:00,
2013-01-06 12:17:00,52.4,32.3,28.85,North,360,0.0,3.1,46,0.00,,,0.00,WSDL version 420,2013-01-06 17:17:00,
2013-01-06 12:23:00,52.9,32.2,28.85,SW,218,0.0,2.2,45,0.00,,,0.00,WSDL version 420,2013-01-06 17:23:00,
2013-01-06 12:25:00,53.0,32.2,28.85,SSW,203,0.9,2.7,45,0.00,,,0.00,WSDL version 420,2013-01-06 17:25:00,
2013-01-06 12:29:00,53.2,32.1,28.85,North,360,0.6,2.7,44,0.00,,,0.00,WSDL version 420,2013-01-06 17:29:00,
2013-01-06 12:31:00,53.3,32.1,28.85,NE,36,0.0,2.7,44,0.00,,,0.00,WSDL version 420,2013-01-06 17:31:00,
2013-01-06 12:35:00,53.6,32.2,28.85,NNE,30,0.0,2.2,44,0.00,,,0.00,WSDL version 420,2013-01-06 17:35:00,
2013-01-06 12:39:00,53.9,32.2,28.85,SW,225,0.0,1.3,43,0.00,,,0.00,WSDL version 420,2013-01-06 17:39:00,
2013-01-06 12:41:00,54.0,32.1,28.85,NW,315,0.0,1.3,43,0.00,,,0.00,WSDL version 420,2013-01-06 17:41:00,
2013-01-06 12:45:00,54.3,32.3,28.85,NW,315,0.0,2.2,43,0.00,,,0.00,WSDL version 420,2013-01-06 17:45:00,
2013-01-06 12:51:00,54.7,32.3,28.85,East,90,0.6,3.4,42,0.00,,,0.00,WSDL version 420,2013-01-06 17:51:00,
2013-01-06 12:55:00,54.9,32.1,28.85,North,0,0.0,3.4,41,0.00,,,0.00,WSDL version 420,2013-01-06 17:55:00,
2013-01-06 12:57:00,54.9,31.9,28.85,NNW,338,0.4,3.4,41,0.00,,,0.00,WSDL version 420,2013-01-06 17:57:00,
2013-01-06 13:03:00,55.0,31.7,28.85,NNE,27,0.0,2.9,41,0.00,,,0.00,WSDL version 420,2013-01-06 18:03:00,
2013-01-06 13:05:00,55.1,31.9,28.85,SW,225,0.7,2.9,41,0.00,,,0.00,WSDL version 420,2013-01-06 18:05:00,
2013-01-06 13:11:00,55.6,32.3,28.82,North,-999,-999.0,-999.0,41,0.00,,,0.00,WSDL version 420,2013-01-06 18:11:00,
2013-01-06 13:15:00,55.8,32.0,28.82,SW,225,0.9,2.7,40,0.00,,,0.00,WSDL version 420,2013-01-06 18:15:00,
2013-01-06 13:17:00,55.9,32.0,28.82,East,96,0.7,2.7,40,0.00,,,0.00,WSDL version 420,2013-01-06 18:17:00,
2013-01-06 13:23:00,56.3,32.3,28.82,SSW,203,2.0,2.7,40,0.00,,,0.00,WSDL version 420,2013-01-06 18:23:00,
2013-01-06 13:25:00,56.4,32.4,28.82,South,191,1.6,2.5,40,0.00,,,0.00,WSDL version 420,2013-01-06 18:25:00,
2013-01-06 13:31:00,56.7,32.4,28.82,SW,225,1.1,2.9,39,0.00,,,0.00,WSDL version 420,2013-01-06 18:31:00,
2013-01-06 13:35:00,56.7,32.0,28.82,SW,225,0.9,2.9,39,0.00,,,0.00,WSDL version 420,2013-01-06 18:35:00,
2013-01-06 13:41:00,56.6,31.9,28.82,North,8,0.0,2.0,39,0.00,,,0.00,WSDL version 420,2013-01-06 18:41:00,
2013-01-06 13:47:00,56.4,31.6,28.82,NNE,23,0.0,0.0,39,0.00,,,0.00,WSDL version 420,2013-01-06 18:47:00,
2013-01-06 13:51:00,56.5,31.8,28.82,SSE,153,0.2,2.5,39,0.00,,,0.00,WSDL version 420,2013-01-06 18:51:00,
2013-01-06 13:53:00,56.5,31.7,28.82,West,259,0.7,2.5,39,0.00,,,0.00,WSDL version 420,2013-01-06 18:53:00,
2013-01-06 13:59:00,56.6,32.0,28.82,South,171,0.0,2.5,39,0.00,,,0.00,WSDL version 420,2013-01-06 18:59:00,
2013-01-06 14:05:00,56.9,32.2,28.82,South,191,1.1,2.5,39,0.00,,,0.00,WSDL version 420,2013-01-06 19:05:00,
2013-01-06 14:07:00,57.0,32.3,28.82,SW,214,0.0,2.5,39,0.00,,,0.00,WSDL version 420,2013-01-06 19:07:00,
2013-01-06 14:11:00,57.1,32.3,28.82,South,180,1.3,2.5,39,0.00,,,0.00,WSDL version 420,2013-01-06 19:11:00,
2013-01-06 14:13:00,57.1,32.3,28.82,South,191,0.9,2.5,39,0.00,,,0.00,WSDL version 420,2013-01-06 19:13:00,
2013-01-06 14:19:00,57.1,32.2,28.82,NNW,338,0.4,2.5,38,0.00,,,0.00,WSDL version 420,2013-01-06 19:19:00,
2013-01-06 14:21:00,57.1,32.2,28.82,NNW,347,0.4,2.5,39,0.00,,,0.00,WSDL version 420,2013-01-06 19:21:00,
2013-01-06 14:25:00,56.9,32.2,28.82,East,90,0.0,2.7,39,0.00,,,0.00,WSDL version 420,2013-01-06 19:25:00,
2013-01-06 14:31:00,56.7,32.0,28.82,WNW,293,0.6,2.7,39,0.00,,,0.00,WSDL version 420,2013-01-06 19:31:00,
2013-01-06 14:37:00,56.8,32.2,28.82,North,360,0.0,2.0,39,0.00,,,0.00,WSDL version 420,2013-01-06 19:37:00,
2013-01-06 14:39:00,56.8,32.2,28.82,NW,315,0.0,0.0,39,0.00,,,0.00,WSDL version 420,2013-01-06 19:39:00,
2013-01-06 14:45:00,57.0,32.3,28.82,SW,225,1.3,1.6,39,0.00,,,0.00,WSDL version 420,2013-01-06 19:45:00,
2013-01-06 14:51:00,57.2,32.5,28.82,WSW,253,0.2,1.6,39,0.00,,,0.00,WSDL version 420,2013-01-06 19:51:00,
2013-01-06 14:53:00,57.1,32.4,28.82,NNE,23,0.0,1.6,39,0.00,,,0.00,WSDL version 420,2013-01-06 19:53:00,
2013-01-06 14:59:00,56.8,32.2,28.82,ESE,122,1.3,2.9,39,0.00,,,0.00,WSDL version 420,2013-01-06 19:59:00,
2013-01-06 15:01:00,56.9,32.2,28.82,WNW,293,0.5,2.9,39,0.00,,,0.00,WSDL version 420,2013-01-06 20:01:00,
2013-01-06 15:06:00,57.0,32.3,28.82,SSW,203,0.9,2.9,39,0.00,,,0.00,WSDL version 420,2013-01-06 20:06:00,
2013-01-06 15:10:00,57.1,32.2,28.82,SW,225,0.0,1.6,38,0.00,,,0.00,WSDL version 420,2013-01-06 20:10:00,
2013-01-06 15:14:00,57.2,31.8,28.82,SSW,203,0.0,1.6,38,0.00,,,0.00,WSDL version 420,2013-01-06 20:14:00,
2013-01-06 15:16:00,57.2,31.8,28.82,SSE,158,0.0,1.1,38,0.00,,,0.00,WSDL version 420,2013-01-06 20:16:00,
2013-01-06 15:20:00,57.2,31.8,28.82,SE,146,1.6,2.0,38,0.00,,,0.00,WSDL version 420,2013-01-06 20:20:00,
2013-01-06 15:22:00,57.2,31.8,28.82,NNW,338,0.0,2.0,38,0.00,,,0.00,WSDL version 420,2013-01-06 20:22:00,
2013-01-06 15:28:00,57.0,32.3,28.82,WSW,252,0.0,0.0,39,0.00,,,0.00,WSDL version 420,2013-01-06 20:28:00,
2013-01-06 15:32:00,57.0,32.2,28.82,NNE,23,1.3,0.0,39,0.00,,,0.00,WSDL version 420,2013-01-06 20:32:00,
2013-01-06 15:34:00,57.0,32.2,28.82,NNE,23,0.0,0.0,39,0.00,,,0.00,WSDL version 420,2013-01-06 20:34:00,
2013-01-06 15:40:00,57.0,32.2,28.82,NE,38,1.3,2.5,39,0.00,,,0.00,WSDL version 420,2013-01-06 20:40:00,
2013-01-06 15:42:00,57.0,32.1,28.82,North,0,0.0,2.5,38,0.00,,,0.00,WSDL version 420,2013-01-06 20:42:00,
2013-01-06 15:46:00,56.8,31.5,28.82,ENE,75,0.0,2.5,38,0.00,,,0.00,WSDL version 420,2013-01-06 20:46:00,
2013-01-06 15:50:00,56.9,31.5,28.82,NE,38,0.3,1.1,38,0.00,,,0.00,WSDL version 420,2013-01-06 20:50:00,
2013-01-06 15:54:00,57.2,31.8,28.82,NE,36,0.0,1.1,38,0.00,,,0.00,WSDL version 420,2013-01-06 20:54:00,
2013-01-06 15:56:00,57.4,32.0,28.85,ENE,60,0.0,1.1,38,0.00,,,0.00,WSDL version 420,2013-01-06 20:56:00,
2013-01-06 16:00:00,57.6,31.8,28.85,West,270,1.3,2.9,37,0.00,,,0.00,WSDL version 420,2013-01-06 21:00:00,
2013-01-06 16:02:00,57.7,31.8,28.85,SW,218,1.3,2.9,37,0.00,,,0.00,WSDL version 420,2013-01-06 21:02:00,
2013-01-06 16:04:00,57.6,31.7,28.85,SSW,195,0.9,2.9,37,0.00,,,0.00,WSDL version 420,2013-01-06 21:04:00,
2013-01-06 16:08:00,57.2,31.3,28.85,West,259,0.8,2.5,37,0.00,,,0.00,WSDL version 420,2013-01-06 21:08:00,
2013-01-06 16:10:00,57.0,31.1,28.82,SSW,203,2.0,2.5,37,0.00,,,0.00,WSDL version 420,2013-01-06 21:10:00,
2013-01-06 16:16:00,56.8,30.8,28.82,SW,236,1.3,2.7,37,0.00,,,0.00,WSDL version 420,2013-01-06 21:16:00,
2013-01-06 16:22:00,56.2,29.8,28.82,SSW,203,2.9,3.4,36,0.00,,,0.00,WSDL version 420,2013-01-06 21:22:00,
2013-01-06 16:37:00,54.9,28.4,28.85,SSW,210,2.5,4.3,36,0.00,,,0.00,WSDL version 420,2013-01-06 21:37:00,
2013-01-06 16:39:00,54.7,28.3,28.85,SW,236,3.0,4.3,36,0.00,,,0.00,WSDL version 420,2013-01-06 21:39:00,
2013-01-06 16:45:00,54.1,27.8,28.82,West,270,1.8,3.8,36,0.00,,,0.00,WSDL version 420,2013-01-06 21:45:00,
2013-01-06 16:47:00,54.0,27.6,28.82,WNW,293,2.1,3.8,36,0.00,,,0.00,WSDL version 420,2013-01-06 21:47:00,
2013-01-06 16:53:00,53.7,27.4,28.82,West,259,2.2,3.8,36,0.00,,,0.00,WSDL version 420,2013-01-06 21:53:00,
2013-01-06 16:57:00,53.3,27.3,28.82,SW,218,1.3,3.8,37,0.00,,,0.00,WSDL version 420,2013-01-06 21:57:00,
2013-01-06 17:01:00,53.0,27.4,28.82,SW,231,2.2,3.8,37,0.00,,,0.00,WSDL version 420,2013-01-06 22:01:00,
2013-01-06 17:03:00,52.8,27.3,28.82,SW,225,2.2,3.6,37,0.00,,,0.00,WSDL version 420,2013-01-06 22:03:00,
2013-01-06 17:07:00,52.3,26.8,28.82,WSW,239,1.7,3.6,37,0.00,,,0.00,WSDL version 420,2013-01-06 22:07:00,
2013-01-06 17:09:00,52.1,26.7,28.82,SW,225,0.7,3.6,37,0.00,,,0.00,WSDL version 420,2013-01-06 22:09:00,
2013-01-06 17:13:00,51.5,26.4,28.82,SW,214,1.0,3.6,38,0.00,,,0.00,WSDL version 420,2013-01-06 22:13:00,
2013-01-06 17:17:00,51.1,26.4,28.82,SSW,210,1.6,4.0,38,0.00,,,0.00,WSDL version 420,2013-01-06 22:17:00,
2013-01-06 17:23:00,50.6,25.9,28.82,WSW,243,2.1,4.3,38,0.00,,,0.00,WSDL version 420,2013-01-06 22:23:00,
2013-01-06 17:29:00,50.1,25.5,28.82,South,188,1.2,6.0,38,0.00,,,0.00,WSDL version 420,2013-01-06 22:29:00,
2013-01-06 17:31:00,49.9,25.4,28.82,SW,236,1.2,6.0,38,0.00,,,0.00,WSDL version 420,2013-01-06 22:31:00,
2013-01-06 17:35:00,49.6,25.2,28.82,SW,218,1.8,3.4,39,0.00,,,0.00,WSDL version 420,2013-01-06 22:35:00,
2013-01-06 17:39:00,49.4,25.5,28.82,WNW,284,2.7,3.8,39,0.00,,,0.00,WSDL version 420,2013-01-06 22:39:00,
2013-01-06 17:41:00,49.2,25.3,28.82,WNW,300,2.5,3.8,39,0.00,,,0.00,WSDL version 420,2013-01-06 22:41:00,
2013-01-06 17:45:00,48.9,25.1,28.82,SW,221,2.1,3.8,39,0.00,,,0.00,WSDL version 420,2013-01-06 22:45:00,
2013-01-06 17:47:00,48.8,25.0,28.82,SW,225,1.1,3.8,39,0.00,,,0.00,WSDL version 420,2013-01-06 22:47:00,
2013-01-06 17:49:00,48.7,24.8,28.82,SSW,203,2.9,3.6,39,0.00,,,0.00,WSDL version 420,2013-01-06 22:49:00,
2013-01-06 17:51:00,48.6,24.8,28.82,WSW,248,3.0,3.8,39,0.00,,,0.00,WSDL version 420,2013-01-06 22:51:00,
2013-01-06 17:53:00,48.5,24.7,28.82,South,185,2.3,3.8,39,0.00,,,0.00,WSDL version 420,2013-01-06 22:53:00,
2013-01-06 17:55:00,48.3,24.6,28.85,WSW,253,2.5,3.8,40,0.00,,,0.00,WSDL version 420,2013-01-06 22:55:00,
2013-01-06 18:01:00,47.9,24.8,28.85,East,86,0.2,3.1,40,0.00,,,0.00,WSDL version 420,2013-01-06 23:01:00,
2013-01-06 18:03:00,47.8,24.6,28.85,West,270,0.9,3.1,40,0.00,,,0.00,WSDL version 420,2013-01-06 23:03:00,
2013-01-06 18:07:00,47.6,24.5,28.85,North,-999,-999.0,-999.0,40,0.00,,,0.00,WSDL version 420,2013-01-06 23:07:00,
2013-01-06 18:09:00,47.4,24.4,28.85,SW,214,2.9,2.9,40,0.00,,,0.00,WSDL version 420,2013-01-06 23:09:00,
2013-01-06 18:11:00,47.3,24.3,28.82,SSW,194,2.1,3.6,40,0.00,,,0.00,WSDL version 420,2013-01-06 23:11:00,
2013-01-06 18:13:00,47.3,24.3,28.82,WSW,248,2.0,3.6,41,0.00,,,0.00,WSDL version 420,2013-01-06 23:13:00,
2013-01-06 18:17:00,47.2,24.7,28.82,SW,214,2.5,4.7,41,0.00,,,0.00,WSDL version 420,2013-01-06 23:17:00,
2013-01-06 18:19:00,47.0,24.6,28.82,SSW,210,1.7,4.7,41,0.00,,,0.00,WSDL version 420,2013-01-06 23:19:00,
2013-01-06 18:21:00,47.0,24.5,28.82,North,360,2.7,4.7,41,0.00,,,0.00,WSDL version 420,2013-01-06 23:21:00,
2013-01-06 18:25:00,46.8,24.3,28.85,WSW,248,0.8,4.7,41,0.00,,,0.00,WSDL version 420,2013-01-06 23:25:00,
2013-01-06 18:27:00,46.8,24.3,28.85,SW,231,1.8,3.1,41,0.00,,,0.00,WSDL version 420,2013-01-06 23:27:00,
2013-01-06 18:29:00,46.7,24.3,28.85,SW,230,1.3,3.1,41,0.00,,,0.00,WSDL version 420,2013-01-06 23:29:00,
2013-01-06 18:33:00,46.5,24.1,28.85,NW,315,1.9,3.6,41,0.00,,,0.00,WSDL version 420,2013-01-06 23:33:00,
2013-01-06 18:37:00,46.4,24.1,28.85,SW,225,2.9,4.9,42,0.00,,,0.00,WSDL version 420,2013-01-06 23:37:00,
2013-01-06 18:39:00,46.3,24.2,28.85,WSW,248,2.5,4.9,42,0.00,,,0.00,WSDL version 420,2013-01-06 23:39:00,
2013-01-06 18:41:00,46.2,24.4,28.85,WNW,293,3.6,4.9,42,0.00,,,0.00,WSDL version 420,2013-01-06 23:41:00,
2013-01-06 18:43:00,46.2,24.4,28.85,WSW,248,2.2,4.9,42,0.00,,,0.00,WSDL version 420,2013-01-06 23:43:00,
2013-01-06 18:45:00,46.2,24.4,28.85,South,180,3.0,4.0,42,0.00,,,0.00,WSDL version 420,2013-01-06 23:45:00,
2013-01-06 18:49:00,46.0,24.2,28.85,SW,225,1.6,4.0,42,0.00,,,0.00,WSDL version 420,2013-01-06 23:49:00,
2013-01-06 18:51:00,46.0,24.2,28.85,East,101,2.1,4.0,42,0.00,,,0.00,WSDL version 420,2013-01-06 23:51:00,
2013-01-06 18:53:00,45.9,24.1,28.85,WSW,248,2.1,4.3,42,0.00,,,0.00,WSDL version 420,2013-01-06 23:53:00,
2013-01-06 18:55:00,45.9,24.1,28.85,North,354,3.4,5.6,42,0.00,,,0.00,WSDL version 420,2013-01-06 23:55:00,
2013-01-06 19:01:00,45.8,24.5,28.85,NW,326,2.8,5.6,43,0.00,,,0.00,WSDL version 420,2013-01-07 00:01:00,
2013-01-06 19:03:00,45.6,24.4,28.85,NNW,332,2.5,5.6,43,0.00,,,0.00,WSDL version 420,2013-01-07 00:03:00,
2013-01-06 19:07:00,45.5,24.3,28.85,NNW,345,3.2,5.6,43,0.00,,,0.00,WSDL version 420,2013-01-07 00:07:00,
2013-01-06 19:09:00,45.4,24.2,28.85,North,360,3.4,5.6,43,0.00,,,0.00,WSDL version 420,2013-01-07 00:09:00,
2013-01-06 19:15:00,45.3,24.4,28.85,North,360,3.6,5.4,44,0.00,,,0.00,WSDL version 420,2013-01-07 00:15:00,
2013-01-06 19:17:00,45.3,24.7,28.85,WNW,293,3.5,4.0,44,0.00,,,0.00,WSDL version 420,2013-01-07 00:17:00,
2013-01-06 19:21:00,45.4,24.5,28.85,NNE,14,3.9,6.3,43,0.00,,,0.00,WSDL version 420,2013-01-07 00:21:00,
2013-01-06 19:23:00,45.4,24.3,28.85,NNW,345,2.8,6.5,43,0.00,,,0.00,WSDL version 420,2013-01-07 00:23:00,
2013-01-06 19:25:00,45.3,24.2,28.85,NNW,338,2.9,6.5,43,0.00,,,0.00,WSDL version 420,2013-01-07 00:25:00,
2013-01-06 19:29:00,45.3,24.0,28.85,North,360,4.5,6.5,42,0.00,,,0.00,WSDL version 420,2013-01-07 00:29:00,
2013-01-06 19:31:00,45.3,23.7,28.85,NNW,333,2.7,6.5,42,0.00,,,0.00,WSDL version 420,2013-01-07 00:31:00,
2013-01-06 19:37:00,45.3,23.2,28.85,North,360,3.6,10.3,41,0.00,,,0.00,WSDL version 420,2013-01-07 00:37:00,
2013-01-06 19:43:00,45.3,22.5,28.88,NNE,23,7.8,10.3,40,0.00,,,0.00,WSDL version 420,2013-01-07 00:43:00,
2013-01-06 19:45:00,45.3,22.4,28.88,NNE,15,6.0,10.3,40,0.00,,,0.00,WSDL version 420,2013-01-07 00:45:00,
2013-01-06 19:51:00,45.1,21.7,28.88,NNW,338,6.5,9.8,39,0.00,,,0.00,WSDL version 420,2013-01-07 00:51:00,
2013-01-06 19:55:00,45.1,21.6,28.88,North,6,7.5,11.0,39,0.00,,,0.00,WSDL version 420,2013-01-07 00:55:00,
2013-01-06 19:59:00,45.0,21.5,28.88,NNW,338,5.9,11.0,39,0.00,,,0.00,WSDL version 420,2013-01-07 00:59:00,
2013-01-06 20:01:00,45.0,21.5,28.88,NNE,15,3.7,11.0,39,0.00,,,0.00,WSDL version 420,2013-01-07 01:01:00,
2013-01-06 20:03:00,44.9,21.4,28.88,North,11,3.6,11.0,39,0.00,,,0.00,WSDL version 420,2013-01-07 01:03:00,
2013-01-06 20:09:00,44.7,21.3,28.88,SSW,203,1.8,5.6,39,0.00,,,0.00,WSDL version 420,2013-01-07 01:09:00,
2013-01-06 20:15:00,44.5,21.0,28.88,North,356,1.6,3.8,39,0.00,,,0.00,WSDL version 420,2013-01-07 01:15:00,
2013-01-06 20:21:00,44.3,20.9,28.88,NW,315,0.0,2.9,39,0.00,,,0.00,WSDL version 420,2013-01-07 01:21:00,
2013-01-06 20:23:00,44.2,20.9,28.88,NNW,330,2.5,3.8,39,0.00,,,0.00,WSDL version 420,2013-01-07 01:23:00,
2013-01-06 20:29:00,44.1,20.7,28.88,North,360,4.9,6.3,39,0.00,,,0.00,WSDL version 420,2013-01-07 01:29:00,
2013-01-06 20:35:00,44.2,20.9,28.88,North,360,2.7,6.3,39,0.00,,,0.00,WSDL version 420,2013-01-07 01:35:00,
2013-01-06 20:37:00,44.2,20.9,28.88,North,11,4.4,6.3,39,0.00,,,0.00,WSDL version 420,2013-01-07 01:37:00,
2013-01-06 20:43:00,44.2,20.8,28.91,SSE,158,2.2,4.9,39,0.00,,,0.00,WSDL version 420,2013-01-07 01:43:00,
2013-01-06 20:49:00,44.1,20.7,28.91,NNW,338,2.2,6.3,39,0.00,,,0.00,WSDL version 420,2013-01-07 01:49:00,
2013-01-06 20:55:00,43.9,20.6,28.88,North,8,1.6,4.0,39,0.00,,,0.00,WSDL version 420,2013-01-07 01:55:00,
2013-01-06 20:59:00,43.9,20.5,28.88,North,360,4.0,6.9,39,0.00,,,0.00,WSDL version 420,2013-01-07 01:59:00,
2013-01-06 21:03:00,44.0,20.4,28.88,WSW,239,1.9,6.9,38,0.00,,,0.00,WSDL version 420,2013-01-07 02:03:00,
2013-01-06 21:05:00,44.1,20.6,28.88,North,360,1.4,6.9,39,0.00,,,0.00,WSDL version 420,2013-01-07 02:05:00,
2013-01-06 21:09:00,44.1,20.6,28.88,NW,326,1.6,6.3,38,0.00,,,0.00,WSDL version 420,2013-01-07 02:09:00,
2013-01-06 21:15:00,44.1,20.2,28.88,NNW,343,3.7,7.4,38,0.00,,,0.00,WSDL version 420,2013-01-07 02:15:00,
2013-01-06 21:21:00,44.3,20.3,28.88,North,356,3.7,7.8,38,0.00,,,0.00,WSDL version 420,2013-01-07 02:21:00,
2013-01-06 21:23:00,44.4,20.4,28.88,North,360,5.6,7.8,38,0.00,,,0.00,WSDL version 420,2013-01-07 02:23:00,
2013-01-06 21:29:00,44.5,20.5,28.91,North,360,4.0,7.2,38,0.00,,,0.00,WSDL version 420,2013-01-07 02:29:00,
2013-01-06 21:31:00,44.6,20.5,28.91,NW,326,6.7,7.2,38,0.00,,,0.00,WSDL version 420,2013-01-07 02:31:00,
2013-01-06 21:35:00,44.6,20.6,28.91,NNW,338,4.0,7.2,38,0.00,,,0.00,WSDL version 420,2013-01-07 02:35:00,
2013-01-06 21:37:00,44.6,20.6,28.91,NNW,329,2.7,5.4,38,0.00,,,0.00,WSDL version 420,2013-01-07 02:37:00,
2013-01-06 21:41:00,44.6,20.4,28.91,West,278,2.9,5.8,38,0.00,,,0.00,WSDL version 420,2013-01-07 02:41:00,
2013-01-06 21:43:00,44.6,20.5,28.91,NNW,338,5.0,5.8,38,0.00,,,0.00,WSDL version 420,2013-01-07 02:43:00,
2013-01-06 21:49:00,44.6,20.6,28.91,NNW,338,1.3,5.8,38,0.00,,,0.00,WSDL version 420,2013-01-07 02:49:00,
2013-01-06 21:51:00,44.5,20.5,28.91,NE,45,4.5,5.8,38,0.00,,,0.00,WSDL version 420,2013-01-07 02:51:00,
2013-01-06 21:53:00,44.5,20.4,28.91,North,360,3.4,5.8,38,0.00,,,0.00,WSDL version 420,2013-01-07 02:53:00,
2013-01-06 21:55:00,44.5,20.4,28.91,NW,315,3.1,5.8,38,0.00,,,0.00,WSDL version 420,2013-01-07 02:55:00,
2013-01-06 21:59:00,44.6,20.5,28.91,North,349,2.6,5.4,38,0.00,,,0.00,WSDL version 420,2013-01-07 02:59:00,
2013-01-06 22:01:00,44.5,20.5,28.91,North,360,3.1,4.7,38,0.00,,,0.00,WSDL version 420,2013-01-07 03:01:00,
2013-01-06 22:07:00,44.8,20.5,28.91,North,0,0.0,7.4,37,0.00,,,0.00,WSDL version 420,2013-01-07 03:07:00,
2013-01-06 22:09:00,44.8,20.6,28.91,West,263,5.3,7.4,38,0.00,,,0.00,WSDL version 420,2013-01-07 03:09:00,
2013-01-06 22:13:00,44.8,20.4,28.91,NE,45,4.5,6.5,38,0.00,,,0.00,WSDL version 420,2013-01-07 03:13:00,
2013-01-06 22:15:00,44.8,20.4,28.91,NNE,23,4.7,6.3,38,0.00,,,0.00,WSDL version 420,2013-01-07 03:15:00,
2013-01-06 22:17:00,44.8,20.5,28.91,North,360,3.6,6.3,38,0.00,,,0.00,WSDL version 420,2013-01-07 03:17:00,
2013-01-06 22:21:00,44.8,20.7,28.91,North,353,2.7,6.0,38,0.00,,,0.00,WSDL version 420,2013-01-07 03:21:00,
2013-01-06 22:23:00,44.8,20.7,28.91,North,11,3.2,11.4,38,0.00,,,0.00,WSDL version 420,2013-01-07 03:23:00,
2013-01-06 22:27:00,44.8,20.7,28.91,North,360,4.6,11.4,38,0.00,,,0.00,WSDL version 420,2013-01-07 03:27:00,
2013-01-06 22:29:00,44.8,20.7,28.91,NNE,23,4.5,11.4,38,0.00,,,0.00,WSDL version 420,2013-01-07 03:29:00,
2013-01-06 22:33:00,44.8,20.7,28.91,WNW,293,3.0,6.3,38,0.00,,,0.00,WSDL version 420,2013-01-07 03:33:00,
2013-01-06 22:35:00,44.8,20.7,28.91,North,360,3.4,6.3,38,0.00,,,0.00,WSDL version 420,2013-01-07 03:35:00,
2013-01-06 22:37:00,44.8,20.7,28.91,ENE,62,3.4,6.5,38,0.00,,,0.00,WSDL version 420,2013-01-07 03:37:00,
2013-01-06 22:41:00,44.8,20.4,28.91,NW,308,4.5,7.6,37,0.00,,,0.00,WSDL version 420,2013-01-07 03:41:00,
2013-01-06 22:43:00,44.9,20.3,28.91,WSW,248,3.1,7.6,37,0.00,,,0.00,WSDL version 420,2013-01-07 03:43:00,
2013-01-06 22:47:00,44.9,20.2,28.91,SW,225,4.5,8.7,37,0.00,,,0.00,WSDL version 420,2013-01-07 03:47:00,
2013-01-06 22:49:00,44.8,20.1,28.91,NNE,18,3.1,8.7,37,0.00,,,0.00,WSDL version 420,2013-01-07 03:49:00,
2013-01-06 22:55:00,44.8,20.1,28.91,West,264,3.4,4.3,37,0.00,,,0.00,WSDL version 420,2013-01-07 03:55:00,
2013-01-06 22:57:00,44.8,20.1,28.91,NW,306,2.6,4.3,37,0.00,,,0.00,WSDL version 420,2013-01-07 03:57:00,
2013-01-06 22:59:00,44.8,20.2,28.91,North,0,0.0,4.3,37,0.00,,,0.00,WSDL version 420,2013-01-07 03:59:00,
2013-01-06 23:05:00,44.8,20.1,28.91,North,360,1.3,3.8,37,0.00,,,0.00,WSDL version 420,2013-01-07 04:05:00,
2013-01-06 23:09:00,44.6,20.0,28.91,West,281,2.2,2.9,38,0.00,,,0.00,WSDL version 420,2013-01-07 04:09:00,
2013-01-06 23:11:00,44.5,20.2,28.94,SSW,203,0.0,4.0,38,0.00,,,0.00,WSDL version 420,2013-01-07 04:11:00,
2013-01-06 23:15:00,44.2,20.2,28.94,SW,236,0.0,4.0,38,0.00,,,0.00,WSDL version 420,2013-01-07 04:15:00,
2013-01-06 23:17:00,44.1,20.1,28.94,South,169,2.0,4.0,38,0.00,,,0.00,WSDL version 420,2013-01-07 04:17:00,
2013-01-06 23:21:00,44.1,20.1,28.94,North,360,1.6,4.0,38,0.00,,,0.00,WSDL version 420,2013-01-07 04:21:00,
2013-01-06 23:25:00,44.2,20.2,28.94,West,259,2.2,4.3,38,0.00,,,0.00,WSDL version 420,2013-01-07 04:25:00,
2013-01-06 23:27:00,44.2,20.2,28.94,NE,45,1.3,4.3,38,0.00,,,0.00,WSDL version 420,2013-01-07 04:27:00,
2013-01-06 23:33:00,44.1,20.1,28.94,NNE,15,3.1,4.9,38,0.00,,,0.00,WSDL version 420,2013-01-07 04:33:00,
2013-01-06 23:35:00,44.1,20.1,28.94,NNW,330,2.5,4.9,38,0.00,,,0.00,WSDL version 420,2013-01-07 04:35:00,
2013-01-06 23:37:00,44.0,20.1,28.94,West,270,2.5,4.9,38,0.00,,,0.00,WSDL version 420,2013-01-07 04:37:00,
2013-01-06 23:41:00,43.8,19.9,28.94,NNE,27,2.5,8.5,38,0.00,,,0.00,WSDL version 420,2013-01-07 04:41:00,
2013-01-06 23:43:00,43.9,20.0,28.94,NNE,23,4.4,8.5,38,0.00,,,0.00,WSDL version 420,2013-01-07 04:43:00,
2013-01-06 23:45:00,44.1,20.1,28.94,SE,146,3.1,8.5,38,0.00,,,0.00,WSDL version 420,2013-01-07 04:45:00,
2013-01-06 23:51:00,44.1,20.2,28.94,NE,45,1.0,4.3,38,0.00,,,0.00,WSDL version 420,2013-01-07 04:51:00,
2013-01-06 23:53:00,44.1,20.4,28.94,East,90,2.7,4.3,39,0.00,,,0.00,WSDL version 420,2013-01-07 04:53:00,
2013-01-06 23:55:00,43.9,20.4,28.94,NNE,23,2.7,4.3,39,0.00,,,0.00,WSDL version 420,2013-01-07 04:55:00,
2013-01-06 23:59:00,43.7,20.4,28.94,NW,321,2.6,4.3,39,0.00,,,0.00,WSDL version 420,2013-01-07 04:59:00,